This demonstration page uses our WeatherBlox Daily Observations layout. Learn more.

Left ArrowRight Arrow

Hourly Observations for August 1, 2017

Temp ( °F °C ) Dew Point ( °F °C ) Humidity (%) Winds ( mph kmh ) Pressure ( in mb ) Visibility ( mi km ) Precip ( " mm )
12:51 am 00:51 Clear 73 22.8 69 20.6 87 87 ENE 9 15 29.91 1013 10 16.0934 0.01 0.254
1:51 am 01:51 Partly Cloudy 74 23.3 68 20 82 82 ESE 7 11 29.88 1012 10 16.0934 0 0
2:51 am 02:51 Clear 74 23.3 68 20 82 82 E 9 15 29.89 1012 10 16.0934 0 0
3:51 am 03:51 Clear 73 22.8 67 19.4 81 81 ESE 5 7 29.89 1012 10 16.0934 0 0
4:51 am 04:51 Clear 74 23.3 68 20 82 82 ESE 7 11 29.91 1013 10 16.0934 0 0
5:51 am 05:51 Sunny 74 23.3 67 19.4 79 79 E 8 13 29.93 1014 10 16.0934 0 0
6:51 am 06:51 Mostly Cloudy 74 23.3 67 19.4 79 79 ESE 8 13 29.94 1014 10 16.0934 0 0
7:51 am 07:51 Sunny 77 25 66 18.9 69 69 E 8 13 29.95 1014 10 16.0934 0 0
8:51 am 08:51 Mostly Sunny 80 26.7 66 18.9 62 62 ESE 9 15 29.97 1015 10 16.0934 0 0
9:51 am 09:51 Cloudy 82 27.8 65 18.3 56 56 ESE 6 9 29.96 1015 10 16.0934 0 0
10:51 am 10:51 Partly Cloudy 84 28.9 65 18.3 53 53 E 5 7 29.95 1014 10 16.0934 0 0
11:51 am 11:51 Mostly Sunny 85 29.4 66 18.9 53 53 VRB 5 7 29.93 1013 10 16.0934 0 0
12:51 pm 12:51 Mostly Sunny 87 30.6 64 17.8 46 46 VRB 5 7 29.89 1012 10 16.0934 0 0
1:51 pm 13:51 Sunny 90 32.2 66 18.9 45 45 SE 6 9 29.86 1011 10 16.0934 0 0
2:51 pm 14:51 Sunny 89 31.7 63 17.2 42 42 SSE 8 13 29.85 1011 10 16.0934 0 0
3:00 pm 15:00 Sunny with Nearby Thunderstorms 89 31.7 63 17.2 42 42 Calm 29.74 1007 10 16.0934 0 0
3:15 pm 15:15 Sunny 89 31.7 64 17.8 43 43 SSE 10 17 29.74 1007 10 16.0934 0 0
3:51 pm 15:51 Sunny 88 31.1 65 18.3 46 46 E 26 43 29.85 1011 10 16.0934 0 0
4:19 pm 16:19 Partly Cloudy with Nearby Thunderstorms 82 27.8 65 18.3 56 56 ENE 30 48 29.8 1009 10 16.0934 0 0
4:51 pm 16:51 Mostly Cloudy 80 26.7 64 17.8 58 58 ENE 20 31 29.89 1012 10 16.0934 0 0
5:51 pm 17:51 Mostly Cloudy 79 26.1 63 17.2 58 58 NNW 8 13 29.92 1013 10 16.0934 0 0
6:51 pm 18:51 Partly Cloudy 72 22.2 67 19.4 84 84 NW 12 19 29.95 1014 10 16.0934 0 0.0254
7:51 pm 19:51 Clear 72 22.2 67 19.4 84 84 NW 9 15 29.94 1014 10 16.0934 0 0
8:51 pm 20:51 Clear 73 22.8 67 19.4 81 81 SSW 3 6 29.97 1015 10 16.0934 0 0
9:51 pm 21:51 Mostly Clear 73 22.8 69 20.6 87 87 Calm 29.97 1015 10 16.0934 0 0.0254
10:51 pm 22:51 Mostly Clear 72 22.2 68 20 87 87 Calm 29.97 1015 10 16.0934 0 0
11:51 pm 23:51 Partly Cloudy 72 22.2 68 20 87 87 SSE 8 13 29.96 1015 10 16.0934 0 0

Powered by AerisWeather